Location: Greenwich
(51.4790°N, 0.0090°E)
Time: 13:24:52
(UTC+01:00)

Altair - Pass Details

Date: 18 June 2025
Orbit: 1502 x 1682 km, 47.2° (Epoch: 19 July)

Event Time Altitude Azimuth Distance (km) Brightness Sun altitude
Rises 22:29:30 0° 189° (S) 4,623 9.6 -8.0°
Reaches altitude 10° 22:33:31 10° 173° (S) 3,655 8.9 -8.4°
Maximum altitude 22:39:38 20° 131° (SE) 2,960 8.4 -8.9°
Drops below altitude 10° 22:45:51 10° 88° (E) 3,729 9.2 -9.4°
Sets 22:49:58 0° 74° (ENE) 4,746 9.9 -9.7°
